Tracking 22124 objects as of 23-Jan-2021
HD Live streaming from Space Station
objects crossing your sky now

SL-14 DEB

Track SL-14 DEB now!
10-day predictions


NORAD ID: 19295
Int'l Code: 1978-100AE
Perigee: 1,255.5 km
Apogee: 2,067.3 km
Inclination: 82.0 °
Period: 119.4 minutes
Semi major axis: 8032 km
RCS: 0.0582 m2 (small)
Launch date: October 26, 1978
Source: Commonwealth of Independent States (former USSR) (CIS)
Launch site: PLESETSK MISSILE AND SPACE COMPLEX (PKMTR)

Note: This is SATELLITE DEBRIS
aabbcc
Your satellite tracking list
Your tracking list is empty




NASA's NSSDC Master Catalog

Two Line Element Set (TLE):
1 19295U 78100AE  21022.31575112  .00000768  00000-0  60040-2 0  9997
2 19295  81.9961 152.4579 0505315 270.0826 110.9254 12.05969372435388
Source of the keplerian elements: AFSPC